Scottsbluff, NE

6:45 PM MDT on August 23, 2019 (GMT -0600)
Heilig

Weather History for KBFF - May, 2019

Change the Weather History Date:

Thursday, May 23, 2019

  Actual Average Record
Temperature  
Mean Temperature 46 °F -  
Max Temperature 60 °F 73 °F 99 °F (1926)
Min Temperature 33 °F 45 °F 32 °F (1935)
Degree Days  
Heating Degree Days 18    
Moisture  
Dew Point 40 °F    
Average Humidity 81    
Maximum Humidity 100    
Minimum Humidity 49    
Precipitation  
Precipitation 0.02 in - - ()
Sea Level Pressure  
Sea Level Pressure 30.02 in    
Wind  
Wind Speed 8 mph (SE)    
Max Wind Speed 20 mph    
Max Gust Speed 26 mph    
Visibility 10 miles    
Events Rain    
Averages and records for this station are not official NWS values.
T = Trace of Precipitation, MM = Missing Value Source: NWS Daily Summary

Daily Weather History Graph

Daily Weather History Graph

Search for Another Location

Airport or City:

Astronomy

May. 23, 2019 Rise Set
Actual Time 5:27 AM MDT 8:15 PM MDT
Civil Twilight 4:54 AM MDT 8:48 PM MDT
Nautical Twilight 4:13 AM MDT 9:29 PM MDT
Astronomical Twilight 3:26 AM MDT 10:17 PM MDT
Moon 12:00 AM MDT (5/23) 9:32 AM MDT (5/23)
Length of Visible Light 15h 53m
Length of Day
14h 48m
Waning Gibbous, 77% of the Moon is Illuminated
May 23
Waning Gibbous
May 26
Last Quarter
Jun 3
New
Jun 10
First Quarter
Jun 17
Full

Hourly Weather History & Observations

Time (MDT) Temp. Windchill Dew Point Humidity Pressure Visibility Wind Dir Wind Speed Gust Speed Precip Events Conditions
12:53 AM 33.1 °F 26.9 °F 33.1 °F 100% 30.07 in 10.0 mi WNW 6.9 mph - N/A   Clear
1:53 AM 34.0 °F - 33.1 °F 96% 30.09 in 10.0 mi Calm Calm - N/A   Partly Cloudy
2:53 AM 34.0 °F 29.8 °F 33.1 °F 96% 30.12 in 10.0 mi NW 4.6 mph - N/A   Clear
3:53 AM 33.1 °F 28.7 °F 32.0 °F 96% 30.12 in 10.0 mi NNW 4.6 mph - N/A   Partly Cloudy
4:53 AM 34.0 °F 28.8 °F 34.0 °F 100% 30.10 in 10.0 mi NNW 5.8 mph - N/A   Overcast
5:53 AM 33.1 °F 30.0 °F 33.1 °F 100% 30.13 in 10.0 mi NNW 3.5 mph - N/A   Clear
6:53 AM 36.0 °F - 34.0 °F 93% 30.15 in 10.0 mi Calm Calm - N/A   Overcast
7:53 AM 41.0 °F 37.1 °F 37.9 °F 89% 30.14 in 10.0 mi WNW 5.8 mph - N/A   Overcast
8:53 AM 43.0 °F 41.3 °F 37.9 °F 82% 30.16 in 10.0 mi NW 3.5 mph - N/A   Overcast
9:53 AM 46.9 °F - 39.0 °F 74% 30.13 in 10.0 mi North 4.6 mph - N/A   Mostly Cloudy
10:53 AM 50.0 °F - 39.0 °F 66% 30.10 in 10.0 mi Variable 4.6 mph - N/A   Overcast
11:53 AM 53.1 °F - 41.0 °F 64% 30.09 in 10.0 mi SE 9.2 mph - N/A   Overcast
12:53 PM 55.9 °F - 41.0 °F 57% 30.06 in 10.0 mi SE 15.0 mph 21.9 mph N/A   Mostly Cloudy
1:53 PM 57.9 °F - 41.0 °F 53% 30.01 in 10.0 mi East 12.7 mph - N/A   Mostly Cloudy
2:53 PM 59.0 °F - 39.9 °F 49% 29.96 in 10.0 mi ESE 16.1 mph - N/A   Overcast
3:53 PM 59.0 °F - 41.0 °F 51% 29.93 in 10.0 mi SE 18.4 mph 26.5 mph N/A   Overcast
4:53 PM 54.0 °F - 42.1 °F 64% 29.94 in 10.0 mi SE 19.6 mph 26.5 mph N/A   Overcast
5:43 PM 51.1 °F - 43.0 °F 74% 29.94 in 10.0 mi SE 19.6 mph - N/A   Overcast
5:53 PM 50.0 °F - 43.0 °F 77% 29.94 in 10.0 mi SE 18.4 mph - N/A   Overcast
6:53 PM 48.9 °F - 43.0 °F 80% 29.93 in 10.0 mi SE 12.7 mph - N/A   Overcast
7:53 PM 48.0 °F - 44.1 °F 86% 29.94 in 10.0 mi SE 12.7 mph - N/A   Overcast
8:53 PM 46.9 °F - 45.0 °F 93% 29.96 in 9.0 mi South 10.4 mph - N/A   Overcast
9:53 PM 46.9 °F - 45.0 °F 93% 29.94 in 10.0 mi SSE 10.4 mph - 0.02 in Rain Light Rain
10:10 PM 46.0 °F 41.9 °F 45.0 °F 96% 29.95 in 10.0 mi SSE 8.1 mph - 0.00 in Rain Light Rain
10:53 PM 45.0 °F 39.7 °F 45.0 °F 100% 29.92 in 10.0 mi SSE 10.4 mph - 0.00 in   Mostly Cloudy
11:53 PM 46.0 °F 41.4 °F 45.0 °F 96% 29.88 in 10.0 mi SE 9.2 mph - N/A   Overcast